Location: *
(46.3500°N, 10.9000°E)
Time: 20:57:29
(UTC+00:00)

A-11 Canister half - Pass Details

Date: 20 April 2021
Orbit: 1526 x 1682 km, 47.3° (Epoch: 13 May)

Event Time Altitude Azimuth Distance (km) Brightness Sun altitude
Rises 13:16:53 0° 207° (SSW) 4,829 12.3 46.9°
Reaches altitude 10° 13:20:16 10° 199° (SSW) 3,867 11.9 46.4°
Maximum altitude 13:29:03 37° 136° (SE) 2,378 10.4 45.3°
Drops below altitude 10° 13:37:59 10° 74° (ENE) 3,948 10.8 44.1°
Sets 13:41:28 0° 67° (ENE) 4,941 11.2 43.6°
